Weather History for Perry, IA

Change the Weather History Date:

Tuesday, August 19, 2014

  Actual Average Record
Temperature  
Mean Temperature 73 °F -  
Max Temperature 82 °F 82 °F 99 °F (1983)
Min Temperature 64 °F 59 °F 45 °F (1967)
Cooling Degree Days 8    
Growing Degree Days 23 (Base 50)    
Moisture  
Dew Point 66 °F    
Average Humidity 80    
Maximum Humidity 97    
Minimum Humidity 51    
Precipitation  
Precipitation 0.00 in - - ()
Sea Level Pressure  
Sea Level Pressure 29.79 in    
Wind  
Wind Speed 4 mph (WNW)    
Max Wind Speed 7 mph    
Max Gust Speed -    
Visibility 10 miles    
Events      
Averages and records for this station are not official NWS values.
T = Trace of Precipitation, MM = Missing Value Source: NWS Daily Summary

Daily Weather History Graph

Daily Weather History Graph

Search for Another Location

Airport:

Trip Planner

Search our weather history database for the weather conditions in past years. The results will help you decide how hot, cold, wet, or windy it might be!

Date:

Astronomy

Aug. 19, 2014 Rise Set
Actual Time 6:29 AM CDT 8:10 PM CDT
Civil Twilight 5:59 AM CDT 8:40 PM CDT
Nautical Twilight 5:23 AM CDT 9:16 PM CDT
Astronomical Twilight 4:44 AM CDT 9:54 PM CDT
Moon 1:20 AM CDT (8/19) 4:09 PM CDT (8/19)
Length of Visible Light 14h 40m
Length of Day
13h 41m
Waning Crescent, 29% of the Moon is Illuminated
Aug 19
Waning Crescent
Aug 25
New
Sep 2
First Quarter
Sep 8
Full
Sep 15
Last Quarter

Hourly Weather History & Observations

Time (CDT) Temp. Heat Index Dew Point Humidity Pressure Visibility Wind Dir Wind Speed Gust Speed Precip Events Conditions
12:15 AM 68.2 °F - 67.1 °F 96% 29.76 in 10.0 mi SW 4.6 mph - N/A   Clear
12:35 AM 68.0 °F - 66.9 °F 96% 29.75 in 10.0 mi SW 5.8 mph - N/A   Clear
12:55 AM 69.4 °F - 68.0 °F 95% 29.75 in 10.0 mi SW 6.9 mph - N/A   Clear
1:15 AM 69.8 °F - 68.0 °F 94% 29.76 in 10.0 mi West 5.8 mph - N/A   Clear
1:35 AM 70.3 °F - 68.9 °F 95% 29.77 in 10.0 mi West 6.9 mph - N/A   Scattered Clouds
1:55 AM 70.2 °F - 68.5 °F 95% 29.77 in 10.0 mi West 6.9 mph - N/A   Scattered Clouds
2:15 AM 70.2 °F - 68.7 °F 95% 29.76 in 10.0 mi WNW 5.8 mph - N/A   Clear
2:35 AM 69.8 °F - 68.4 °F 95% 29.75 in 10.0 mi WNW 5.8 mph - N/A   Clear
2:55 AM 69.1 °F - 67.5 °F 95% 29.76 in 10.0 mi West 5.8 mph - N/A   Clear
3:15 AM 69.3 °F - 67.6 °F 95% 29.76 in 10.0 mi West 4.6 mph - N/A   Clear
3:35 AM 68.4 °F - 67.1 °F 96% 29.76 in 10.0 mi West 5.8 mph - N/A   Clear
3:55 AM 68.0 °F - 66.7 °F 96% 29.75 in 10.0 mi WNW 3.5 mph - N/A   Clear
4:15 AM 67.1 °F - 66.2 °F 97% 29.75 in 10.0 mi West 5.8 mph - N/A   Clear
4:35 AM 67.1 °F - 65.8 °F 96% 29.74 in 10.0 mi NW 4.6 mph - N/A   Clear
4:55 AM 66.2 °F - 65.3 °F 97% 29.74 in 10.0 mi West 3.5 mph - N/A   Clear
5:15 AM 66.2 °F - 65.3 °F 97% 29.75 in 10.0 mi SW 6.9 mph - N/A   Clear
5:35 AM 66.2 °F - 65.3 °F 97% 29.75 in 10.0 mi WSW 5.8 mph - N/A   Clear
5:55 AM 66.6 °F - 64.9 °F 95% 29.76 in 10.0 mi West 4.6 mph - N/A   Clear
6:15 AM 65.7 °F - 64.4 °F 96% 29.75 in 10.0 mi West 4.6 mph - N/A   Clear
6:35 AM 64.9 °F - 63.9 °F 96% 29.76 in 10.0 mi NW 4.6 mph - N/A   Clear
6:55 AM 64.8 °F - 63.9 °F 97% 29.76 in 10.0 mi WNW 4.6 mph - N/A   Clear
7:15 AM 65.1 °F - 64.0 °F 96% 29.77 in 10.0 mi West 4.6 mph - N/A   Clear
7:35 AM 65.8 °F - 64.8 °F 96% 29.79 in 10.0 mi West 3.5 mph - N/A   Clear
7:55 AM 66.9 °F - 65.5 °F 95% 29.80 in 10.0 mi Calm Calm - N/A   Clear
8:15 AM 68.0 °F - 66.4 °F 95% 29.80 in 10.0 mi West 3.5 mph - N/A   Clear
8:35 AM 70.0 °F - 66.9 °F 90% 29.81 in 10.0 mi West 4.6 mph - N/A   Clear
8:55 AM 70.7 °F - 66.4 °F 86% 29.81 in 10.0 mi WNW 4.6 mph - N/A   Clear
9:15 AM 72.0 °F - 66.7 °F 84% 29.81 in 10.0 mi West 3.5 mph - N/A   Clear
9:35 AM 72.9 °F - 66.4 °F 80% 29.81 in 10.0 mi NW 3.5 mph - N/A   Clear
9:55 AM 73.8 °F - 66.6 °F 78% 29.81 in 10.0 mi Calm Calm - N/A   Clear
10:15 AM 74.8 °F - 66.6 °F 75% 29.81 in 10.0 mi Calm Calm - N/A   Clear
10:35 AM 75.6 °F - 65.5 °F 71% 29.81 in 10.0 mi WNW 3.5 mph - N/A   Clear
10:55 AM 76.3 °F - 65.5 °F 69% 29.82 in 10.0 mi WNW 4.6 mph - N/A   Clear
11:15 AM 77.2 °F - 66.4 °F 69% 29.82 in 10.0 mi NW 4.6 mph - N/A   Clear
11:35 AM 77.7 °F - 66.4 °F 68% 29.82 in 10.0 mi NW 4.6 mph - N/A   Clear
11:55 AM 78.4 °F - 66.2 °F 66% 29.82 in 10.0 mi WNW 4.6 mph - N/A   Clear
12:15 PM 78.8 °F - 65.3 °F 63% 29.83 in 10.0 mi WNW 4.6 mph - N/A   Scattered Clouds
12:35 PM 79.3 °F - 65.5 °F 62% 29.83 in 10.0 mi NW 5.8 mph - N/A   Scattered Clouds
12:55 PM 80.1 °F 82.0 °F 65.5 °F 61% 29.83 in 10.0 mi WNW 5.8 mph - N/A   Clear
1:15 PM 80.4 °F 82.2 °F 65.1 °F 59% 29.83 in 10.0 mi NW 5.8 mph - N/A   Scattered Clouds
1:35 PM 80.1 °F 81.8 °F 64.8 °F 59% 29.83 in 10.0 mi NNW 5.8 mph - N/A   Scattered Clouds
1:55 PM 81.5 °F 83.4 °F 65.7 °F 58% 29.83 in 10.0 mi West 3.5 mph - N/A   Scattered Clouds
2:15 PM 81.5 °F 83.1 °F 64.6 °F 56% 29.82 in 10.0 mi NW 3.5 mph - N/A   Scattered Clouds
2:35 PM 81.3 °F 82.9 °F 64.4 °F 56% 29.82 in 10.0 mi NNW 5.8 mph - N/A   Clear
2:55 PM 81.7 °F 83.3 °F 64.8 °F 56% 29.81 in 10.0 mi NW 5.8 mph - N/A   Clear
3:15 PM 81.7 °F 83.0 °F 63.7 °F 54% 29.81 in 10.0 mi North 4.6 mph - N/A   Clear
3:35 PM 82.4 °F 83.4 °F 62.6 °F 51% 29.81 in 10.0 mi Calm Calm - N/A   Clear
3:55 PM 82.4 °F 84.1 °F 64.6 °F 55% 29.81 in 10.0 mi WSW 3.5 mph - N/A   Clear
4:15 PM 82.4 °F 84.1 °F 64.8 °F 55% 29.80 in 10.0 mi NW 3.5 mph - N/A   Clear
4:35 PM 82.4 °F 83.9 °F 64.0 °F 54% 29.80 in 10.0 mi Calm Calm - N/A   Clear
4:55 PM 82.6 °F 84.3 °F 64.8 °F 55% 29.80 in 10.0 mi NW 5.8 mph - N/A   Clear
5:35 PM 82.0 °F 83.6 °F 64.4 °F 55% 29.80 in 10.0 mi Calm Calm - N/A   Clear
5:55 PM 81.7 °F 83.6 °F 65.5 °F 58% 29.80 in 10.0 mi Calm Calm - N/A   Clear
6:15 PM 81.5 °F 83.3 °F 65.1 °F 57% 29.79 in 10.0 mi North 3.5 mph - N/A   Clear
6:35 PM 80.6 °F 82.7 °F 65.8 °F 61% 29.79 in 10.0 mi NNW 3.5 mph - N/A   Clear
6:55 PM 80.1 °F 82.2 °F 66.6 °F 63% 29.80 in 10.0 mi Calm Calm - N/A   Clear
7:15 PM 79.2 °F - 68.4 °F 69% 29.80 in 10.0 mi Calm Calm - N/A   Clear
7:35 PM 77.7 °F - 69.3 °F 75% 29.80 in 10.0 mi Calm Calm - N/A   Clear
7:55 PM 76.1 °F - 70.0 °F 81% 29.80 in 10.0 mi Calm Calm - N/A   Clear
8:15 PM 72.7 °F - 70.0 °F 91% 29.80 in 10.0 mi Calm Calm - N/A   Clear
8:35 PM 70.9 °F - 69.1 °F 94% 29.81 in 10.0 mi Calm Calm - N/A   Clear
8:55 PM 70.0 °F - 68.5 °F 95% 29.81 in 10.0 mi Calm Calm - N/A   Clear
9:55 PM 68.2 °F - 66.9 °F 96% 29.82 in 10.0 mi South 3.5 mph - N/A   Clear
10:15 PM 67.3 °F - 65.8 °F 95% 29.82 in 10.0 mi South 3.5 mph - N/A   Clear
10:35 PM 67.5 °F - 65.7 °F 94% 29.83 in 10.0 mi South 3.5 mph - N/A   Clear
10:55 PM 66.7 °F - 64.9 °F 94% 29.83 in 10.0 mi Calm Calm - N/A   Clear
11:15 PM 66.6 °F - 65.5 °F 96% 29.83 in 10.0 mi Calm Calm - N/A   Clear
11:35 PM 65.7 °F - 64.6 °F 96% 29.83 in 10.0 mi Calm Calm - N/A   Clear
11:55 PM 65.5 °F - 64.2 °F 96% 29.83 in 10.0 mi Calm Calm - N/A   Clear